When you browse on this site, cookies collect data to enhance your experience and personalize the content and advertising you see.
Visit our Privacy Policy to learn more. By continuing to use the site, you agree to this use of cookies and data.
  • En España
  • Lista de países
  • Para 7 días
  • Temperatura del agua
  • El tiempo en el mapa
  • Informadores
  • user-avatar
    Iniciar sesión

    Tiempo cada hora Suhotinovka

    Hoy, 23 Agosto, Viernes

    Tiempo Temperatura Precipitaciones Viento Presión Humedad
    00:00 +15°C° 0 mm 4 mps 747 mmHg 87%
    01:00 +14°C° 0 mm 4 mps 747 mmHg 88%
    02:00 +14°C° 0 mm 4 mps 748 mmHg 87%
    03:00 +13°C° 0 mm 4 mps 748 mmHg 87%
    04:00 +13°C° 0 mm 4 mps 748 mmHg 88%
    05:00 +13°C° 0 mm 4 mps 748 mmHg 89%
    06:00 +14°C° 0 mm 4 mps 748 mmHg 86%
    07:00 +15°C° 0 mm 4 mps 748 mmHg 82%
    08:00 +16°C° 0 mm 5 mps 749 mmHg 79%
    09:00 +17°C° 0 mm 5 mps 749 mmHg 75%
    10:00 +19°C° 0 mm 5 mps 749 mmHg 70%
    11:00 +21°C° 0 mm 5 mps 749 mmHg 66%
    12:00 +21°C° 0 mm 5 mps 748 mmHg 64%
    13:00 +22°C° 0 mm 4 mps 748 mmHg 62%
    14:00 +22°C° 0 mm 4 mps 748 mmHg 60%
    15:00 +21°C° 0 mm 4 mps 748 mmHg 64%
    16:00 +21°C° 0 mm 3 mps 748 mmHg 67%
    17:00 +21°C° 0 mm 3 mps 748 mmHg 71%
    18:00 +19°C° 0 mm 2 mps 748 mmHg 75%
    19:00 +18°C° 0 mm 2 mps 748 mmHg 79%
    20:00 +16°C° 0 mm 2 mps 748 mmHg 83%
    21:00 +15°C° 0 mm 2 mps 748 mmHg 85%
    22:00 +15°C° 0 mm 2 mps 748 mmHg 87%
    23:00 +14°C° 0 mm 2 mps 748 mmHg 89%

    Mañana, 24 Agosto, Sábado

    Tiempo Temperatura Precipitaciones Viento Presión Humedad
    00:00 +14°C° 0 mm 2 mps 748 mmHg 89%
    01:00 +14°C° 0 mm 2 mps 748 mmHg 90%
    02:00 +13°C° 0 mm 2 mps 748 mmHg 90%
    03:00 +13°C° 0 mm 2 mps 748 mmHg 90%
    04:00 +13°C° 0 mm 2 mps 748 mmHg 90%
    05:00 +13°C° 0 mm 1 mps 748 mmHg 90%
    06:00 +14°C° 0 mm 1 mps 748 mmHg 84%
    07:00 +16°C° 0 mm 1 mps 748 mmHg 78%
    08:00 +19°C° 0 mm 1 mps 748 mmHg 71%
    09:00 +20°C° 0 mm 1 mps 748 mmHg 65%
    10:00 +22°C° 0 mm 1 mps 748 mmHg 59%
    11:00 +23°C° 0 mm 1 mps 747 mmHg 53%
    12:00 +23°C° 0 mm 1 mps 747 mmHg 52%
    13:00 +24°C° 0 mm 2 mps 747 mmHg 50%
    14:00 +24°C° 0 mm 2 mps 747 mmHg 49%
    15:00 +24°C° 0 mm 2 mps 746 mmHg 53%
    16:00 +23°C° 0 mm 2 mps 746 mmHg 57%
    17:00 +23°C° 0 mm 1 mps 746 mmHg 62%
    18:00 +21°C° 0 mm 1 mps 746 mmHg 66%
    19:00 +19°C° 0 mm 1 mps 746 mmHg 70%
    20:00 +16°C° 0 mm 1 mps 746 mmHg 74%
    21:00 +16°C° 0 mm 1 mps 746 mmHg 77%
    22:00 +15°C° 0 mm 1 mps 746 mmHg 80%
    23:00 +15°C° 0 mm 2 mps 746 mmHg 83%

    Pasado mañana, 25 Agosto, Domingo

    Tiempo Temperatura Precipitaciones Viento Presión Humedad
    00:00 +15°C° 0 mm 2 mps 746 mmHg 85%
    01:00 +14°C° 0 mm 2 mps 746 mmHg 88%
    02:00 +14°C° 0 mm 2 mps 746 mmHg 91%
    03:00 +14°C° 0 mm 2 mps 746 mmHg 92%
    04:00 +14°C° 0 mm 2 mps 746 mmHg 93%
    05:00 +14°C° 0 mm 2 mps 746 mmHg 94%
    06:00 +15°C° 0 mm 2 mps 746 mmHg 89%
    07:00 +17°C° 0 mm 2 mps 746 mmHg 85%
    08:00 +18°C° 0 mm 3 mps 746 mmHg 80%
    09:00 +20°C° 0 mm 3 mps 746 mmHg 75%
    10:00 +21°C° 0 mm 3 mps 746 mmHg 69%
    11:00 +22°C° 0 mm 4 mps 747 mmHg 64%
    12:00 +22°C° 0 mm 4 mps 747 mmHg 61%
    13:00 +22°C° 0 mm 4 mps 747 mmHg 58%
    14:00 +22°C° 0 mm 4 mps 747 mmHg 55%
    15:00 +22°C° 0 mm 4 mps 747 mmHg 59%
    16:00 +21°C° 0 mm 3 mps 747 mmHg 63%
    17:00 +20°C° 0 mm 3 mps 747 mmHg 67%
    18:00 +19°C° 0 mm 3 mps 747 mmHg 71%
    19:00 +17°C° 0 mm 2 mps 747 mmHg 75%
    20:00 +15°C° 0 mm 2 mps 747 mmHg 80%
    21:00 +15°C° 0 mm 2 mps 748 mmHg 82%
    22:00 +14°C° 0 mm 2 mps 748 mmHg 83%
    23:00 +14°C° 0 mm 2 mps 748 mmHg 85%

    26 Agosto, Lunes

    Tiempo Temperatura Precipitaciones Viento Presión Humedad
    00:00 +13°C° 0 mm 2 mps 748 mmHg 87%
    01:00 +13°C° 0 mm 2 mps 749 mmHg 89%
    02:00 +13°C° 0 mm 2 mps 749 mmHg 91%
    03:00 +12°C° 0 mm 2 mps 749 mmHg 91%
    04:00 +12°C° 0 mm 2 mps 749 mmHg 91%
    05:00 +12°C° 0 mm 1 mps 749 mmHg 92%
    06:00 +14°C° 0 mm 2 mps 749 mmHg 85%
    07:00 +15°C° 0 mm 2 mps 749 mmHg 78%
    08:00 +17°C° 0 mm 2 mps 749 mmHg 71%
    09:00 +18°C° 0 mm 2 mps 749 mmHg 66%
    10:00 +19°C° 0 mm 2 mps 749 mmHg 60%
    11:00 +20°C° 0 mm 2 mps 749 mmHg 55%
    12:00 +22°C° 0 mm 1 mps 749 mmHg 52%
    13:00 +22°C° 0 mm 1 mps 749 mmHg 50%
    14:00 +23°C° 0 mm 1 mps 749 mmHg 48%
    15:00 +23°C° 0 mm 1 mps 748 mmHg 51%
    16:00 +22°C° 0 mm 1 mps 748 mmHg 55%
    17:00 +20°C° 0 mm 0 mps 747 mmHg 59%
    18:00 +18°C° 0 mm 0 mps 747 mmHg 62%
    19:00 +16°C° 0 mm 0 mps 747 mmHg 64%
    20:00 +15°C° 0 mm 0 mps 747 mmHg 67%
    21:00 +15°C° 0 mm 1 mps 747 mmHg 68%
    22:00 +15°C° 0 mm 1 mps 747 mmHg 69%
    23:00 +14°C° 0 mm 1 mps 747 mmHg 70%

    27 Agosto, Martes

    Tiempo Temperatura Precipitaciones Viento Presión Humedad
    00:00 +14°C° 0 mm 1 mps 747 mmHg 72%
    01:00 +14°C° 0 mm 1 mps 747 mmHg 73%
    02:00 +13°C° 0 mm 1 mps 746 mmHg 74%
    03:00 +13°C° 0 mm 2 mps 746 mmHg 76%
    04:00 +13°C° 0 mm 2 mps 746 mmHg 77%
    05:00 +12°C° 0 mm 2 mps 746 mmHg 79%
    06:00 +14°C° 0 mm 2 mps 746 mmHg 77%
    07:00 +16°C° 0 mm 2 mps 746 mmHg 75%
    08:00 +17°C° 0 mm 3 mps 746 mmHg 73%
    09:00 +19°C° 0 mm 3 mps 745 mmHg 70%
    10:00 +20°C° 0 mm 3 mps 745 mmHg 66%
    11:00 +22°C° 0 mm 4 mps 745 mmHg 63%
    12:00 +22°C° 0 mm 4 mps 745 mmHg 62%
    13:00 +22°C° 0 mm 4 mps 745 mmHg 62%
    14:00 +23°C° 0 mm 4 mps 744 mmHg 62%
    15:00 +22°C° 0 mm 4 mps 744 mmHg 66%
    16:00 +22°C° 0 mm 3 mps 744 mmHg 70%
    17:00 +21°C° 0 mm 3 mps 744 mmHg 74%
    18:00 +20°C° 0 mm 3 mps 744 mmHg 78%
    19:00 +18°C° 0 mm 3 mps 744 mmHg 83%
    20:00 +17°C° 0 mm 3 mps 744 mmHg 87%
    21:00 +17°C° 0 mm 3 mps 744 mmHg 89%
    22:00 +16°C° 0 mm 3 mps 744 mmHg 91%
    23:00 +16°C° 0 mm 2 mps 744 mmHg 92%

    28 Agosto, Miércoles

    Tiempo Temperatura Precipitaciones Viento Presión Humedad
    00:00 +15°C° 0 mm 2 mps 744 mmHg 93%
    01:00 +15°C° 0 mm 2 mps 744 mmHg 93%
    02:00 +14°C° 0 mm 2 mps 744 mmHg 94%
    03:00 +14°C° 0 mm 2 mps 744 mmHg 94%
    04:00 +13°C° 0 mm 2 mps 744 mmHg 94%
    05:00 +13°C° 0 mm 2 mps 745 mmHg 94%
    06:00 +14°C° 0 mm 2 mps 745 mmHg 87%
    07:00 +16°C° 0 mm 2 mps 745 mmHg 81%
    08:00 +18°C° 0 mm 2 mps 745 mmHg 74%
    09:00 +19°C° 0 mm 3 mps 746 mmHg 69%
    10:00 +20°C° 0 mm 3 mps 746 mmHg 64%
    11:00 +21°C° 0 mm 3 mps 746 mmHg 59%
    12:00 +21°C° 0 mm 3 mps 746 mmHg 59%
    13:00 +21°C° 0 mm 3 mps 746 mmHg 59%
    14:00 +21°C° 0 mm 4 mps 745 mmHg 59%
    15:00 +20°C° 0 mm 3 mps 745 mmHg 62%
    16:00 +20°C° 0 mm 3 mps 745 mmHg 64%
    17:00 +19°C° 0 mm 3 mps 745 mmHg 67%
    18:00 +17°C° 0 mm 3 mps 746 mmHg 69%
    19:00 +14°C° 0 mm 3 mps 746 mmHg 71%
    20:00 +13°C° 0 mm 3 mps 746 mmHg 73%
    21:00 +13°C° 0 mm 2 mps 746 mmHg 73%
    22:00 +12°C° 0 mm 2 mps 747 mmHg 72%
    23:00 +10°C° 0 mm 2 mps 747 mmHg 72%
    Mostrar más